Location: Unspecified
(41.5000°N, 0.0000°E)
Time: 14:25:37
(UTC+00:00)

Vanguard 2 - Pass Details

Date: 24 June 2019
Orbit: 553 x 2938 km, 32.9° (Epoch: 16 July)

Event Time Altitude Azimuth Distance (km) Brightness Sun altitude
Rises 06:21:17 0° 205° (SSW) 2,774 10.0 18.7°
Reaches altitude 10° 06:24:27 10° 176° (S) 2,036 9.7 19.2°
Maximum altitude 06:26:41 13° 147° (SSE) 1,973 10.0 19.6°
Drops below altitude 10° 06:29:13 10° 118° (ESE) 2,411 10.9 20.1°
Sets 06:33:42 0° 94° (E) 3,802 12.4 20.9°
